Tracking 19717 objects as of 25-Jun-2019
HD Live streaming from Space Station
objects crossing your sky now

COSMOS 617

Track COSMOS 617 now!
10-day predictions
COSMOS 617 is classified as:


NORAD ID: 6985
Int'l Code: 1973-104A
Perigee: 1,341.1 km
Apogee: 1,490.4 km
Inclination: 74.0 °
Period: 114.0 minutes
Semi major axis: 7786 km
RCS: 0.6851 m2 (medium)
Launch date: December 19, 1973
Source: Commonwealth of Independent States (former USSR) (CIS)
Launch site: PLESETSK MISSILE AND SPACE COMPLEX (PKMTR)
aabbcc
Your satellite tracking list
Your tracking list is empty




NASA's NSSDC Master Catalog

Two Line Element Set (TLE):
1  6985U 73104A   19175.50754837 -.00000015  00000-0  87306-5 0  9991
2  6985  74.0298 273.5467 0095816  42.0838  69.7165 12.63481431 99373
Source of the keplerian elements: AFSPC